Location: Ferchesar
(52.6477°N, 12.4298°E)
Time: 03:36:23
(UTC+02:00)

Vanguard 3 - Pass Details

Date: 01 March 2021
Orbit: 508 x 3262 km, 33.3° (Epoch: 15 April)

Event Time Altitude Azimuth Distance (km) Brightness Sun altitude
Rises 14:04:10 0° 198° (SSW) 7,219 13.3 26.2°
Reaches altitude 10° 14:11:35 10° 183° (S) 6,109 12.8 25.7°
Maximum altitude 14:22:04 18° 149° (SSE) 5,009 11.7 24.8°
Drops below altitude 10° 14:30:52 10° 114° (ESE) 5,045 11.1 24.1°
Sets 14:35:57 0° 97° (E) 5,577 11.2 23.6°
